Regional Weather Roundup
Issued by NWS

Home | Current Version | Previous Version | Graphics & Text | Print | Product List | Glossary On
Versions: 1 2 3 4 5 6 7 8 9 10 11 12 13 14 15 16 17 18 19 20 21 22 23 24 25 26 27 28 29 30 31 32 33 34 35 36 37 38 39 40 41 42 43 44 45 46 47 48 49 50
000
ASUS45 KCYS 210110
RWRWY

WYOMING REGIONAL WEATHER ROUNDUP
NATIONAL WEATHER SERVICE CHEYENNE WY
600 PM MST SAT JAN 20 2018

NOTE:  "FAIR" INDICATES FEW OR NO CLOUDS BELOW 12,000 FEET
WITH NO SIGNIFICANT WEATHER AND/OR OBSTRUCTIONS TO VISIBILITY.

WYZ001-210200-
YELLOWSTONE NATIONAL PARK

CITY           SKY/WX    TMP DP  RH WIND       PRES   REMARKS
LK YELLOWSTONE   N/A     12   8  84 CALM      29.89R
W YELLOWSTONE  NOT AVBL

$$
WYZ002>013-054>058-071-098>099-210200-
NORTHERN WYOMING

CITY           SKY/WX    TMP DP  RH WIND       PRES   REMARKS
JACKSON        CLOUDY    23  15  71 N7        29.86R WCI  15
CODY           MOCLDY    27  22  81 N3        29.93R
GREYBULL       MOCLDY    31  26  82 CALM      29.92R
WORLAND        CLOUDY    28  27  96 S9        29.92R WCI  19
SHERIDAN       MOCLDY    29  20  69 CALM      29.96R
BUFFALO        CLOUDY    27  15  61 W3        29.93R
GILLETTE       CLOUDY    28  24  85 W7        29.93R WCI  21
HULETT         CLOUDY    30  27  86 MISG      29.94R
NEWCASTLE      LGT SNOW  30  28  93 N7        29.93S WCI  23

$$
WYZ014>020-022>026-101>103-210200-
CENTRAL WYOMING

CITY           SKY/WX    TMP DP  RH WIND       PRES   REMARKS
BIG PINEY      CLOUDY    24  17  74 NW7       29.79R WCI  16
PINEDALE       LGT SNOW  23  19  86 NW10      29.78R WCI  12
DUBOIS         CLOUDY    21  19  93 SE8G16    29.81R FOG     WCI  12
LANDER         LGT SNOW  24  23  96 SE3       29.87R VSB 1
RIVERTON       LGT SNOW  24  22  91 NE6       29.88R FOG     WCI  17
CASPER         LGT SNOW  24  23  96 NE9       29.88R VSB 1   WCI  14
DOUGLAS        LGT SNOW  26  25  96 N8        29.89S VSB 3/4 WCI  18

$$
WYZ021-027>030-104>119-210200-
SOUTHERN WYOMING

CITY           SKY/WX    TMP DP  RH WIND       PRES   REMARKS
EVANSTON       CLOUDY    20  18  92 N21       29.80R FOG     WCI   4
FORT BRIDGER   LGT SNOW  23  23 100 W7        29.83R WCI  14
ROCK SPRINGS   LGT SNOW  23  20  88 N9        29.78R FOG     WCI  13
DIXON          LGT SNOW  31  29  96 SW5       29.73S WCI  26
RAWLINS        LGT SNOW  25  23  92 N8        29.74R FOG     WCI  16
SARATOGA       LGT SNOW  28  28 100 W9        29.72S WCI  20
LARAMIE        CLOUDY    30  24  78 E7        29.73R WCI  23
CHEYENNE       FOG       27  27 100 NE10      29.81R VSB 1/4 WCI  17
TORRINGTON     CLOUDY    32  30  92 NE12      29.87R WCI  23

$$



USA.gov is the U.S. government's official web portal to all federal, state and local government web resources and services.